Elora Rcs, Ontario

3:18 AM EDT on April 27, 2018 (GMT -0400)
Elora Rcs

Weather History for CZEL - April, 2014

Change the Weather History Date:

Sunday, April 13, 2014

  Actual Average (CYKF) Record (CYKF)
Temperature  
Mean Temperature 58 °F -  
Max Temperature 70 °F 49 °F 72 °F (2015)
Min Temperature 46 °F 33 °F 21 °F (2009)
Degree Days  
Heating Degree Days 7    
Growing Degree Days 8 (Base 50)    
Moisture  
Dew Point 53 °F    
Average Humidity 85    
Maximum Humidity 95    
Minimum Humidity 61    
Precipitation  
Precipitation 0.03 in - - ()
Sea Level Pressure  
Sea Level Pressure 29.83 in    
Wind  
Wind Speed 12 mph ()    
Max Wind Speed 24 mph    
Max Gust Speed 30 mph    
Averages and records for this station are not official NWS values.
T = Trace of Precipitation, MM = Missing Value Source: Averaged Metar Reports

Daily Weather History Graph

Daily Weather History Graph

Search for Another Location

Airport or City:

Astronomy

Apr. 13, 2014 Rise Set
Actual Time 6:42 AM EDT 8:02 PM EDT
Civil Twilight 6:12 AM EDT 8:32 PM EDT
Nautical Twilight 5:36 AM EDT 9:08 PM EDT
Astronomical Twilight 4:59 AM EDT 9:46 PM EDT
Moon 6:36 PM EDT (4/13) 5:43 AM EDT (4/13)
Length of Visible Light 14h 19m
Length of Day
13h 20m
Waxing Gibbous, 97% of the Moon is Illuminated
Apr 13
Waxing Gibbous
Apr 15
Full
Apr 22
Last Quarter
Apr 29
New
May 6
First Quarter

Hourly Weather History & Observations

Time (EDT) Temp. Windchill Dew Point Humidity Pressure Visibility Wind Dir Wind Speed Gust Speed Precip Events Conditions
12:00 AM 46.8 °F - 42.6 °F 85% 29.99 in - East 18.4 mph 25.3 mph 0.09 in   Unknown
1:00 AM 46.4 °F 40.1 °F 43.3 °F 89% 30.00 in - ENE 15.0 mph 20.7 mph 0.20 in   Unknown
2:00 AM 47 °F - 45 °F 92% 29.95 in - East 20.7 mph - -  
2:00 AM 47.1 °F - 45.3 °F 93% 29.95 in - East 20.7 mph 27.6 mph 0.23 in   Unknown
3:00 AM 48.6 °F - 46.4 °F 92% 29.94 in - East 13.8 mph - N/A   Unknown
4:00 AM 48.4 °F - 46.2 °F 92% 29.88 in - ESE 15.0 mph 21.9 mph N/A   Unknown
5:00 AM 48.0 °F - 46.0 °F 93% 29.88 in - East 9.2 mph - N/A   Unknown
6:00 AM 47.8 °F - 46.2 °F 94% 29.88 in - East 8.1 mph - N/A   Unknown
7:00 AM 47.8 °F - 46.4 °F 95% 29.87 in - East 8.1 mph - N/A   Unknown
8:00 AM 51 °F - 49 °F 92% 29.86 in - ESE 5.8 mph - -  
8:00 AM 51.4 °F - 49.3 °F 92% 29.86 in - ESE 5.8 mph - N/A   Unknown
9:00 AM 55.8 °F - 52.5 °F 89% 29.86 in - SE 4.6 mph - N/A   Unknown
10:00 AM 56.5 °F - 52.0 °F 85% 29.85 in - SSE 6.9 mph - N/A   Unknown
11:00 AM 64.6 °F - 56.5 °F 75% 29.81 in - South 12.7 mph - N/A   Unknown
12:00 PM 69.8 °F - 61.0 °F 73% 29.79 in - SSW 16.1 mph - N/A   Unknown
1:00 PM 68.0 °F - 57.9 °F 70% 29.78 in - SSW 19.6 mph 25.3 mph N/A   Unknown
2:00 PM 67 °F - 57 °F 61% 29.77 in - SW 24.2 mph - -  
2:00 PM 66.6 °F - 56.7 °F 70% 29.77 in - SW 24.2 mph 29.9 mph N/A   Unknown
3:00 PM 66.2 °F - 57.4 °F 73% 29.78 in - SW 16.1 mph 21.9 mph N/A   Unknown
4:00 PM 66.6 °F - 57.9 °F 74% 29.77 in - SW 13.8 mph - N/A   Unknown
5:00 PM 67.8 °F - 60.3 °F 77% 29.75 in - SSW 11.5 mph 17.3 mph N/A   Unknown
6:00 PM 64.9 °F - 59.9 °F 84% 29.77 in - WNW 5.8 mph - N/A   Unknown
7:00 PM 63.9 °F - 59.9 °F 87% 29.76 in - NNE 1.2 mph - N/A   Unknown
8:00 PM 64 °F - 61 °F 85% 29.77 in - WNW 5.8 mph - -  
8:00 PM 64.2 °F - 60.6 °F 88% 29.77 in - WNW 5.8 mph - N/A   Unknown
9:00 PM 63.3 °F - 61.0 °F 92% 29.77 in - North 3.5 mph - N/A   Unknown
10:00 PM 61.0 °F - 59.4 °F 94% 29.77 in - ENE 2.3 mph - N/A   Unknown
11:00 PM 58.6 °F - 57.0 °F 94% 29.75 in - East 5.8 mph - N/A   Unknown